Temp
-14 -14 -13 -13 -13 -12 -12 -13 -14 -14 -13 -13 -13 -13 -12 -12 -12 -11 -11 -11 -12 -11 -11 -11 -11 -11 -11 -11 -11 -11 -11 -11 -10 -10 -10 -11 -11 -11 -12 -12 -12 -12 -12 -12 -12 -12 -12 -12 -12
-14 -14 -14 -13 -13 -13 -13 -15 -15 -14 -13 -13 -13 -13 -13 -13 -12 -12 -11 -11 -11 -11 -11 -11 -11 -11 -11 -11 -11 -11 -11 -11 -10 -10 -10 -11 -11 -12 -12 -12 -13 -13 -13 -13 -12 -12 -12 -12 -12
-14 -15 -14 -14 -14 -14 -15 -15 -14 -13 -13 -14 -13 -13 -13 -13 -12 -12 -11 -11 -11 -11 -11 -11 -11 -12 -12 -12 -11 -11 -11 -11 -11 -11 -11 -11 -11 -11 -12 -13 -13 -13 -13 -13 -12 -13 -13 -12 -12
-15 -15 -15 -15 -15 -15 -15 -15 -14 -14 -13 -13 -13 -13 -13 -13 -13 -12 -12 -11 -11 -11 -11 -12 -12 -11 -11 -11 -12 -11 -11 -11 -11 -11 -12 -12 -12 -12 -13 -14 -14 -14 -14 -13 -13 -13 -12 -12 -12
-15 -16 -15 -15 -15 -16 -15 -15 -15 -14 -14 -13 -13 -13 -13 -13 -13 -12 -11 -12 -12 -12 -11 -11 -11 -11 -12 -11 -11 -11 -11 -12 -12 -11 -11 -12 -12 -12 -14 -15 -15 -14 -13 -13 -13 -13 -12 -13 -13
-16 -16 -16 -16 -16 -16 -16 -15 -14 -14 -14 -13 -13 -13 -13 -13 -12 -12 -12 -12 -12 -12 -12 -11 -11 -11 -11 -12 -12 -12 -12 -11 -11 -11 -12 -12 -12 -15 -16 -15 -14 -14 -14 -13 -13 -13 -13 -13 -12
-16 -16 -16 -16 -16 -16 -16 -15 -15 -15 -14 -14 -14 -13 -13 -13 -12 -12 -12 -13 -12 -12 -12 -12 -10 -11 -11 -11 -12 -12 -12 -11 -11 -11 -11 -12 -14 -16 -16 -15 -14 -14 -14 -13 -13 -13 -13 -12 -12
-16 -16 -17 -17 -16 -16 -16 -16 -16 -15 -14 -14 -14 -13 -13 -13 -12 -12 -12 -12 -12 -12 -12 -11 -11 -11 -11 -11 -11 -11 -11 -11 -12 -12 -13 -15 -17 -16 -15 -15 -14 -14 -14 -13 -13 -13 -13 -13 -13
-17 -17 -17 -17 -16 -16 -16 -15 -15 -15 -14 -14 -13 -13 -13 -13 -13 -12 -11 -11 -11 -12 -11 -10 -11 -11 -11 -11 -11 -11 -11 -13 -13 -13 -15 -16 -15 -15 -15 -14 -14 -13 -13 -14 -14 -13 -13 -13 -13
-17 -17 -17 -17 -17 -16 -16 -16 -15 -15 -14 -14 -14 -13 -14 -13 -12 -11 -11 -11 -11 -11 -12 -11 -11 -11 -11 -11 -12 -12 -13 -13 -14 -16 -16 -16 -16 -15 -15 -14 -14 -14 -14 -14 -14 -14 -13 -13 -13
-17 -17 -17 -17 -17 -16 -16 -16 -15 -14 -15 -14 -14 -14 -13 -13 -13 -12 -12 -11 -12 -12 -12 -12 -12 -12 -11 -12 -12 -13 -13 -15 -15 -16 -16 -16 -15 -14 -14 -14 -15 -15 -15 -14 -14 -14 -14 -14 -14
-18 -17 -17 -17 -17 -16 -16 -16 -15 -14 -14 -13 -13 -13 -13 -13 -13 -13 -12 -11 -12 -12 -11 -12 -12 -12 -12 -12 -13 -14 -16 -17 -16 -15 -15 -15 -16 -15 -15 -15 -15 -14 -14 -14 -14 -14 -14 -14 -14
-17 -17 -17 -17 -17 -16 -16 -16 -15 -15 -14 -13 -14 -14 -14 -13 -13 -13 -13 -13 -13 -13 -13 -12 -12 -12 -13 -15 -15 -16 -16 -16 -15 -15 -15 -15 -15 -15 -15 -14 -14 -14 -14 -14 -14 -14 -14 -14 -15
-18 -17 -17 -16 -16 -16 -16 -15 -15 -15 -15 -14 -14 -14 -14 -15 -14 -16 -15 -14 -15 -15 -14 -14 -15 -15 -16 -16 -15 -15 -15 -15 -15 -15 -15 -15 -15 -15 -14 -14 -14 -14 -14 -15 -14 -14 -14 -15 -15
-18 -17 -17 -17 -16 -16 -15 -15 -15 -16 -16 -15 -15 -15 -16 -16 -16 -17 -16 -15 -15 -15 -15 -16 -16 -16 -15 -15 -15 -15 -15 -15 -15 -14 -14 -15 -15 -14 -14 -14 -14 -14 -15 -14 -15 -15 -15 -15 -15
-18 -17 -17 -17 -16 -16 -15 -15 -15 -16 -15 -15 -15 -16 -16 -16 -16 -15 -16 -16 -16 -16 -16 -15 -15 -15 -15 -15 -15 -15 -14 -14 -14 -15 -15 -15 -15 -15 -15 -15 -15 -15 -15 -15 -15 -15 -15 -15 -15
-18 -17 -17 -17 -16 -15 -15 -15 -15 -16 -16 -15 -15 -16 -16 -16 -16 -15 -15 -16 -16 -15 -16 -15 -15 -15 -14 -14 -14 -14 -14 -14 -14 -15 -15 -15 -15 -15 -15 -15 -15 -15 -15 -15 -15 -15 -16 -16 -16
-18 -18 -17 -17 -16 -16 -15 -15 -16 -16 -16 -16 -15 -15 -15 -15 -16 -16 -15 -15 -15 -15 -15 -15 -15 -15 -15 -14 -14 -14 -15 -15 -15 -14 -15 -15 -15 -15 -15 -15 -15 -15 -15 -15 -16 -16 -16 -17 -17
-18 -18 -17 -17 -16 -16 -15 -15 -15 -16 -16 -16 -16 -15 -15 -15 -15 -15 -15 -15 -15 -15 -15 -15 -15 -15 -15 -15 -15 -15 -14 -14 -14 -14 -15 -15 -15 -15 -15 -15 -15 -15 -16 -16 -16 -16 -17 -17 -17
-17 -17 -17 -17 -16 -16 -16 -16 -15 -16 -16 -16 -16 -15 -16 -16 -15 -15 -15 -15 -15 -15 -16 -16 -16 -16 -15 -15 -15 -15 -15 -15 -15 -15 -15 -15 -15 -15 -15 -15 -15 -16 -16 -16 -17 -17 -18 -18 -18
-17 -17 -17 -17 -17 -16 -16 -16 -16 -16 -15 -16 -16 -16 -16 -16 -16 -16 -16 -16 -15 -15 -16 -16 -16 -16 -16 -15 -15 -15 -15 -15 -15 -15 -15 -15 -15 -15 -15 -15 -16 -16 -17 -17 -18 -18 -19 -19 -19
-17 -17 -16 -16 -16 -16 -16 -16 -16 -16 -15 -15 -16 -16 -16 -16 -16 -16 -16 -16 -16 -16 -16 -16 -16 -16 -16 -16 -15 -15 -15 -15 -15 -15 -15 -15 -15 -16 -16 -16 -17 -17 -18 -18 -18 -19 -19 -19 -19
-16 -16 -16 -16 -16 -15 -15 -15 -16 -16 -15 -15 -15 -16 -15 -16 -16 -16 -17 -16 -16 -16 -16 -16 -16 -15 -16 -15 -15 -15 -15 -15 -15 -16 -16 -15 -16 -16 -16 -17 -17 -18 -18 -19 -19 -19 -19 -20 -20
-15 -15 -16 -16 -15 -15 -15 -15 -15 -15 -16 -15 -15 -15 -15 -15 -16 -16 -17 -17 -17 -17 -17 -16 -16 -16 -16 -16 -15 -15 -15 -15 -15 -16 -16 -16 -16 -16 -16 -17 -18 -18 -19 -19 -19 -20 -20 -20 -20
-15 -15 -15 -16 -16 -15 -16 -15 -15 -15 -15 -15 -15 -15 -15 -15 -15 -15 -16 -16 -16 -16 -16 -16 -16 -16 -16 -16 -15 -16 -16 -16 -16 -16 -16 -17 -16 -17 -17 -17 -18 -19 -19 -19 -19 -19 -19 -20 -20
-15 -15 -15 -15 -15 -15 -15 -15 -15 -15 -15 -15 -15 -14 -15 -15 -15 -15 -15 -15 -16 -16 -16 -16 -16 -16 -16 -15 -16 -16 -16 -15 -16 -16 -16 -17 -17 -17 -18 -18 -19 -19 -19 -19 -19 -20 -20 -20 -20
-16 -16 -16 -15 -15 -15 -15 -15 -15 -15 -16 -15 -15 -15 -15 -15 -15 -15 -15 -15 -15 -16 -16 -16 -16 -16 -16 -16 -16 -16 -16 -16 -16 -16 -17 -17 -17 -18 -18 -18 -19 -19 -19 -19 -20 -20 -20 -20 -20
-16 -16 -16 -15 -15 -15 -15 -15 -15 -16 -16 -16 -15 -15 -15 -15 -15 -15 -15 -15 -16 -16 -16 -16 -16 -16 -16 -16 -15 -15 -15 -15 -16 -16 -17 -17 -17 -18 -18 -18 -18 -19 -19 -19 -20 -20 -20 -20 -20
-16 -16 -16 -16 -16 -16 -15 -15 -16 -16 -16 -16 -16 -16 -15 -15 -15 -15 -15 -15 -15 -16 -16 -16 -16 -16 -16 -16 -16 -15 -15 -16 -16 -16 -17 -17 -17 -18 -18 -19 -19 -19 -20 -19 -20 -20 -21 -21 -21
-16 -16 -16 -16 -16 -16 -16 -15 -16 -16 -16 -16 -16 -16 -16 -16 -16 -16 -16 -16 -16 -16 -16 -16 -16 -16 -16 -16 -16 -15 -15 -16 -16 -17 -17 -17 -18 -18 -18 -19 -19 -19 -20 -20 -20 -20 -21 -21 -21
Height
5774 5776 5778 5781 5786 5788 5791 5794 5796 5798 5803 5806 5808 5808 5811 5814 5815 5818 5819 5820 5822 5824 5826 5826 5825 5825 5826 5827 5829 5830 5831 5832 5833 5832 5832 5831 5833 5835 5835 5837 5838 5841 5841 5840 5839 5839 5839 5837 5836
5768 5770 5772 5775 5778 5781 5785 5788 5791 5795 5799 5801 5803 5805 5807 5809 5809 5812 5814 5815 5816 5818 5819 5820 5822 5821 5821 5823 5824 5825 5826 5826 5827 5826 5827 5827 5829 5831 5830 5833 5836 5837 5837 5837 5837 5836 5836 5835 5834
5763 5764 5767 5769 5772 5777 5781 5785 5786 5790 5795 5796 5799 5801 5803 5804 5805 5807 5808 5808 5809 5811 5813 5814 5815 5814 5816 5819 5820 5821 5821 5822 5821 5822 5823 5824 5825 5826 5826 5829 5831 5833 5835 5835 5835 5834 5833 5833 5833
5759 5761 5763 5766 5771 5775 5779 5780 5782 5785 5788 5792 5795 5799 5800 5801 5802 5804 5805 5805 5805 5805 5805 5806 5807 5808 5810 5812 5814 5814 5816 5817 5817 5818 5818 5820 5821 5821 5822 5824 5827 5830 5832 5832 5832 5831 5832 5832 5831
5756 5758 5760 5765 5769 5773 5777 5777 5778 5780 5784 5788 5791 5794 5796 5797 5798 5799 5801 5801 5802 5802 5801 5800 5800 5800 5801 5804 5809 5810 5810 5810 5811 5812 5814 5816 5816 5817 5817 5822 5825 5828 5827 5828 5829 5829 5829 5829 5827
5755 5756 5760 5764 5768 5771 5773 5774 5775 5777 5781 5783 5786 5789 5792 5793 5792 5793 5794 5795 5797 5797 5795 5792 5793 5791 5791 5795 5800 5803 5805 5807 5807 5808 5809 5811 5812 5814 5817 5821 5823 5824 5824 5824 5826 5825 5825 5825 5823
5754 5755 5760 5763 5766 5767 5770 5771 5772 5773 5778 5780 5783 5786 5789 5789 5788 5789 5789 5791 5793 5792 5789 5782 5783 5786 5787 5791 5793 5798 5800 5801 5803 5804 5804 5807 5808 5814 5818 5820 5819 5820 5820 5822 5822 5822 5821 5822 5820
5754 5755 5759 5762 5763 5766 5768 5769 5771 5774 5777 5778 5779 5781 5781 5784 5783 5784 5784 5786 5788 5787 5782 5784 5783 5778 5779 5784 5787 5791 5795 5796 5799 5801 5803 5804 5809 5813 5816 5816 5817 5818 5818 5818 5818 5818 5818 5816 5815
5755 5757 5758 5759 5762 5765 5766 5768 5771 5774 5775 5775 5776 5777 5778 5777 5777 5779 5780 5784 5782 5780 5779 5769 5770 5778 5779 5782 5785 5789 5789 5796 5795 5797 5799 5806 5809 5811 5814 5814 5814 5815 5814 5816 5814 5814 5813 5813 5810
5755 5756 5758 5759 5761 5763 5765 5768 5770 5773 5773 5772 5771 5771 5770 5771 5773 5773 5774 5778 5777 5777 5775 5772 5774 5775 5778 5784 5782 5787 5787 5791 5794 5797 5801 5804 5807 5810 5812 5812 5812 5812 5812 5811 5809 5809 5809 5809 5806
5754 5754 5756 5760 5761 5765 5767 5768 5770 5771 5771 5771 5770 5767 5767 5768 5769 5767 5770 5772 5769 5772 5771 5773 5772 5773 5777 5779 5783 5785 5788 5791 5795 5797 5800 5803 5806 5808 5809 5810 5809 5810 5809 5807 5807 5807 5806 5805 5803
5755 5754 5756 5759 5762 5765 5767 5768 5769 5770 5770 5770 5767 5764 5764 5765 5765 5763 5764 5764 5766 5768 5765 5768 5769 5772 5774 5776 5779 5782 5788 5793 5797 5800 5801 5801 5803 5804 5804 5806 5806 5804 5805 5805 5804 5803 5802 5801 5799
5754 5754 5757 5761 5762 5765 5767 5767 5768 5769 5768 5766 5765 5762 5762 5762 5762 5761 5763 5764 5762 5765 5765 5766 5766 5768 5773 5776 5779 5785 5791 5795 5796 5797 5799 5800 5800 5802 5803 5802 5802 5802 5802 5800 5800 5799 5798 5796 5794
5754 5757 5758 5761 5763 5766 5767 5767 5767 5768 5767 5765 5764 5762 5760 5760 5761 5762 5762 5764 5764 5766 5767 5769 5770 5774 5777 5785 5787 5790 5794 5795 5794 5795 5799 5798 5798 5799 5798 5798 5799 5799 5798 5797 5796 5795 5793 5791 5788
5754 5757 5759 5762 5763 5765 5766 5768 5768 5768 5766 5765 5763 5762 5762 5763 5763 5763 5764 5764 5767 5769 5769 5773 5777 5781 5782 5787 5788 5789 5791 5792 5791 5794 5796 5794 5794 5795 5796 5795 5795 5794 5795 5793 5790 5789 5786 5783 5779
5754 5757 5760 5762 5764 5765 5766 5768 5768 5767 5766 5766 5764 5764 5763 5764 5767 5767 5768 5769 5770 5773 5773 5777 5781 5783 5783 5786 5788 5788 5790 5790 5791 5791 5793 5791 5792 5792 5792 5791 5791 5790 5788 5786 5783 5781 5777 5774 5770
5753 5756 5758 5760 5763 5764 5766 5766 5765 5766 5767 5767 5766 5765 5764 5766 5768 5769 5771 5772 5773 5775 5778 5779 5782 5783 5784 5786 5787 5786 5788 5787 5788 5789 5788 5789 5789 5790 5789 5788 5787 5785 5782 5778 5776 5773 5769 5765 5761
5753 5754 5758 5758 5762 5763 5764 5764 5763 5765 5766 5766 5766 5767 5768 5769 5769 5770 5772 5773 5774 5776 5778 5780 5782 5783 5784 5783 5783 5783 5782 5783 5784 5787 5785 5787 5788 5787 5786 5783 5782 5778 5775 5772 5768 5763 5759 5756 5751
5751 5753 5756 5758 5758 5763 5762 5763 5764 5763 5766 5766 5768 5768 5769 5769 5771 5771 5773 5774 5775 5776 5778 5777 5779 5779 5779 5779 5779 5779 5779 5781 5783 5785 5784 5785 5783 5782 5780 5777 5774 5771 5767 5764 5759 5755 5751 5746 5742
5751 5754 5754 5756 5756 5760 5760 5761 5762 5762 5764 5766 5767 5769 5769 5769 5770 5772 5772 5774 5775 5776 5776 5776 5776 5776 5777 5777 5778 5778 5779 5780 5782 5782 5781 5780 5778 5776 5772 5770 5766 5763 5760 5755 5751 5746 5740 5736 5731
5750 5753 5754 5754 5755 5758 5759 5760 5762 5764 5764 5765 5766 5768 5769 5769 5770 5770 5771 5772 5773 5774 5774 5775 5775 5775 5775 5776 5777 5778 5777 5779 5779 5778 5776 5774 5771 5767 5765 5763 5760 5756 5751 5746 5740 5735 5730 5725 5719
5749 5751 5752 5753 5755 5757 5758 5760 5761 5762 5764 5765 5766 5768 5769 5769 5769 5771 5771 5770 5770 5770 5772 5772 5774 5774 5774 5774 5775 5774 5775 5775 5773 5772 5770 5766 5763 5760 5759 5756 5751 5746 5741 5735 5730 5724 5719 5713 5707
5748 5747 5751 5753 5754 5756 5757 5758 5759 5759 5761 5762 5764 5766 5767 5767 5768 5769 5769 5770 5770 5770 5770 5771 5771 5771 5771 5771 5772 5771 5770 5769 5767 5765 5762 5758 5754 5752 5749 5746 5742 5736 5730 5724 5718 5713 5707 5701 5696
5747 5750 5750 5752 5753 5755 5757 5757 5758 5759 5760 5760 5760 5762 5762 5763 5764 5766 5766 5765 5765 5764 5766 5767 5767 5768 5767 5768 5766 5766 5764 5761 5759 5756 5752 5749 5745 5743 5739 5735 5730 5724 5719 5713 5706 5701 5697 5692 5686
5746 5748 5749 5750 5751 5754 5754 5754 5757 5756 5756 5757 5758 5759 5760 5761 5761 5761 5762 5762 5761 5760 5762 5763 5763 5764 5764 5763 5762 5760 5757 5753 5751 5748 5744 5741 5737 5733 5729 5725 5719 5714 5709 5704 5697 5691 5687 5680 5672
5744 5747 5748 5748 5750 5751 5751 5752 5755 5753 5753 5754 5754 5755 5755 5756 5757 5757 5756 5757 5757 5757 5758 5758 5758 5759 5758 5757 5754 5752 5749 5747 5744 5741 5737 5734 5728 5723 5719 5714 5710 5708 5700 5695 5689 5681 5674 5666 5658
5742 5744 5746 5747 5747 5748 5749 5750 5751 5750 5749 5749 5751 5752 5754 5754 5755 5755 5753 5754 5754 5754 5755 5755 5754 5753 5752 5749 5746 5745 5742 5739 5736 5733 5730 5725 5721 5717 5712 5708 5701 5695 5690 5682 5675 5667 5660 5652 5643
5738 5741 5742 5743 5743 5743 5744 5745 5746 5747 5746 5747 5748 5749 5750 5750 5750 5750 5750 5751 5751 5750 5751 5750 5749 5747 5744 5742 5739 5736 5733 5730 5727 5726 5723 5718 5712 5707 5702 5697 5690 5684 5678 5670 5662 5655 5647 5638 5630
5734 5735 5737 5738 5738 5737 5738 5741 5742 5743 5743 5744 5745 5745 5746 5745 5746 5746 5746 5746 5746 5747 5746 5743 5741 5739 5736 5734 5732 5729 5726 5723 5722 5717 5713 5708 5703 5697 5691 5684 5677 5671 5665 5657 5649 5641 5632 5623 5614
5728 5730 5732 5732 5734 5734 5733 5737 5738 5739 5739 5739 5739 5741 5741 5742 5742 5742 5742 5741 5741 5739 5737 5735 5734 5732 5731 5727 5726 5722 5718 5715 5712 5707 5703 5698 5692 5686 5679 5670 5664 5658 5652 5644 5636 5627 5618 5608 5599
Wind_Speed
23 25 26 33 33 31 33 32 36 35 38 35 31 28 29 28 30 32 30 28 25 25 26 27 30 31 34 34 32 28 29 29 22 22 22 18 20 23 16 13 10 11 9 12 16 15 16 15 14
19 22 26 31 33 32 30 26 27 34 35 33 34 32 34 30 31 29 30 29 28 29 29 30 32 33 33 33 33 29 27 27 25 20 20 19 24 24 18 12 12 12 11 16 18 16 16 16 17
16 20 25 30 32 30 27 19 25 29 32 30 29 30 29 35 35 32 32 28 28 29 30 32 33 36 35 35 29 28 27 28 28 28 20 21 25 26 20 14 15 18 15 17 19 18 16 17 20
16 18 22 26 25 23 18 22 26 24 28 27 26 25 26 29 32 33 27 28 29 33 33 33 34 34 33 31 31 24 29 28 25 24 27 26 28 27 23 21 20 13 16 16 20 18 20 21 25
14 15 17 19 21 17 16 21 25 26 26 26 26 26 23 25 27 31 30 32 29 29 28 31 31 35 36 33 22 29 31 29 27 25 28 26 26 29 15 9 10 16 18 22 14 17 22 24 24
12 11 11 12 14 17 20 26 25 27 26 28 30 27 23 25 24 28 32 33 26 28 30 36 35 30 32 22 34 27 30 28 31 27 33 31 31 11 9 13 15 21 20 16 20 22 26 29 29
8 6 9 14 15 19 22 26 29 29 25 24 24 22 21 21 26 27 28 31 30 35 35 47 40 33 33 38 33 32 26 26 28 33 36 35 14 10 10 10 14 19 16 19 20 22 28 28 26
6 11 16 14 17 17 20 22 25 24 16 19 23 23 23 24 28 27 32 22 30 31 37 41 50 34 38 33 40 35 26 24 23 33 30 13 10 10 11 10 15 18 15 16 23 25 23 27 24
8 18 14 17 16 20 19 13 21 12 18 20 24 24 31 24 27 29 32 29 26 32 21 42 49 53 42 45 40 34 35 23 27 28 12 11 10 11 12 11 12 15 20 24 22 26 22 26 28
17 17 12 17 15 19 21 11 4 8 10 19 26 11 15 17 17 27 31 25 33 28 41 25 24 37 44 41 17 17 22 24 19 17 17 15 12 10 12 16 16 16 18 24 24 22 24 22 19
17 20 19 14 14 20 15 12 11 11 13 16 18 14 13 14 14 19 15 17 24 25 24 18 19 24 37 33 21 23 25 17 19 14 12 11 11 12 16 19 18 17 18 20 19 17 17 21 24
15 17 15 12 11 13 11 8 9 12 12 12 14 13 13 12 14 17 16 21 21 16 19 14 17 28 29 34 24 26 19 14 12 9 10 10 13 17 16 13 12 15 14 12 14 16 20 24 27
16 15 19 5 8 8 5 11 13 6 6 6 8 4 8 8 8 14 11 11 8 12 11 8 19 22 19 18 18 12 9 10 10 11 13 12 8 5 9 11 15 11 11 14 19 22 26 29 30
12 11 13 4 3 3 8 7 17 6 3 5 7 5 10 10 6 15 12 11 20 25 22 18 17 16 17 10 10 9 10 10 9 8 11 12 15 10 11 6 7 11 16 19 24 28 29 32 34
11 10 11 11 1 2 11 9 10 11 1 3 7 9 14 15 17 21 16 20 19 20 21 17 15 16 18 16 15 15 15 15 9 9 10 10 12 12 6 8 12 17 22 26 28 31 33 36 39
17 8 6 8 13 8 11 9 12 7 4 3 6 12 14 15 12 15 19 20 17 14 15 13 10 10 10 11 12 10 11 12 11 8 9 8 9 7 10 13 18 22 26 30 32 36 38 41 43
13 14 9 13 8 12 13 9 10 8 5 5 8 11 12 13 12 14 15 17 17 16 13 11 9 9 10 9 11 11 12 12 10 9 6 5 6 11 14 19 23 26 31 35 38 41 43 45 46
13 16 16 16 20 6 8 10 11 7 4 4 6 10 11 10 10 10 11 11 10 9 8 7 6 8 7 6 7 9 8 8 7 7 6 8 13 16 20 23 27 32 36 39 42 44 45 45 45
12 16 17 20 22 19 15 13 8 12 6 5 4 7 9 10 9 7 7 7 8 8 6 5 3 4 6 6 5 6 7 8 8 9 11 15 17 21 24 28 32 37 40 43 45 46 47 48 48
11 11 15 15 21 14 16 12 10 12 10 7 6 7 8 7 8 10 9 9 9 7 5 5 6 5 7 7 8 8 8 8 11 14 17 20 23 25 29 33 37 40 43 44 44 45 44 45 45
13 15 12 16 14 14 16 16 9 9 8 6 5 4 4 6 8 9 10 9 9 7 6 7 8 10 11 11 12 11 11 13 15 18 22 26 28 30 34 37 40 42 43 43 44 43 42 46 45
10 16 16 15 13 15 20 15 14 9 9 11 10 7 5 7 8 9 11 11 11 8 6 7 10 12 13 15 15 13 13 17 20 22 27 30 34 32 39 41 40 42 41 42 43 42 45 46 49
18 22 20 16 14 12 12 11 12 12 8 12 18 13 13 14 14 14 14 12 11 13 11 11 12 13 14 17 16 14 17 21 23 26 31 38 34 38 46 41 42 40 41 42 43 45 50 51 52
17 15 17 20 17 14 12 7 4 5 6 10 14 18 16 20 19 18 18 17 17 18 16 13 12 13 13 11 13 17 21 24 27 30 33 37 38 47 44 43 46 45 46 47 46 49 51 57 57
17 17 17 20 21 19 18 14 4 10 11 8 11 14 14 13 21 24 27 24 20 19 15 12 15 9 13 15 19 21 25 28 32 35 36 37 43 48 45 47 49 49 48 44 47 58 56 59 60
20 20 17 19 21 21 21 20 12 13 14 15 10 11 11 10 18 21 25 22 20 19 15 14 15 10 16 19 23 26 30 33 35 35 36 39 43 46 48 48 52 53 45 51 52 57 58 60 64
22 23 23 24 19 20 20 21 15 15 14 13 13 13 13 14 13 11 8 8 11 12 12 12 11 16 21 24 28 32 34 37 32 32 38 41 44 48 48 52 57 45 54 56 58 62 63 68 71
21 22 21 21 23 23 23 23 19 16 15 18 19 18 17 16 12 10 10 12 12 13 15 16 18 21 25 29 34 36 35 37 35 39 39 45 46 49 55 59 59 54 58 61 63 65 66 68 74
22 23 24 24 25 27 25 21 17 13 16 17 19 20 18 19 18 14 15 15 15 18 20 23 24 27 29 33 36 38 38 39 36 37 40 44 53 57 61 62 60 58 63 65 67 67 68 72 76
26 27 27 27 27 28 29 20 20 19 18 18 19 17 19 21 21 20 19 20 22 24 27 29 29 31 34 37 38 38 39 35 36 40 48 54 57 62 63 59 57 67 66 69 70 72 73 76 79
Wind_Direction
267 263 255 245 234 235 240 234 230 232 231 234 236 236 238 243 246 249 247 246 247 247 250 258 267 276 277 279 289 289 288 288 292 294 294 286 300 310 293 293 265 261 268 287 287 292 298 310 316
273 262 255 245 231 230 234 239 235 233 233 235 238 238 241 239 242 246 249 252 251 252 255 261 268 273 278 283 292 287 284 283 283 271 281 281 279 305 292 273 256 245 263 273 281 291 296 304 309
278 267 252 247 235 230 236 233 239 234 234 235 236 239 239 239 240 243 246 248 251 254 261 266 270 276 278 278 284 277 279 281 278 277 281 279 276 292 291 254 237 244 247 266 277 286 294 303 305
285 272 254 246 235 232 233 227 230 228 224 231 232 235 242 245 246 243 250 249 256 259 259 267 276 277 273 269 267 267 271 280 278 278 271 275 288 276 267 239 241 233 260 257 275 285 295 298 302
287 270 255 243 227 230 214 218 222 224 221 221 221 229 237 241 243 247 249 255 262 271 274 268 272 278 267 257 243 247 264 273 267 266 262 289 272 260 235 231 239 249 242 259 284 290 292 296 301
287 267 243 227 204 205 211 214 224 227 221 221 221 227 234 241 243 239 246 251 259 262 268 273 269 259 253 225 246 242 264 269 266 261 260 272 265 214 216 233 239 244 254 274 279 284 292 299 307
278 232 178 175 204 212 218 218 222 228 232 235 234 240 242 243 249 255 254 246 255 262 274 274 217 240 237 248 242 238 253 257 260 266 257 261 239 197 217 237 247 251 261 270 275 277 287 298 294
258 159 168 204 208 213 222 229 231 230 234 235 231 238 238 237 249 253 256 259 258 267 282 236 247 243 253 237 232 243 250 255 270 263 254 172 171 188 208 217 240 254 277 278 273 283 293 289 293
184 160 186 206 206 215 217 229 233 249 243 251 240 236 244 239 248 256 256 252 261 271 257 216 226 232 246 230 227 260 258 258 255 245 191 158 172 198 216 244 260 261 269 279 285 286 284 293 302
170 189 193 214 208 224 226 237 285 246 243 254 270 259 279 240 254 259 258 258 259 261 265 241 234 231 229 243 254 260 240 237 237 157 163 177 186 217 218 246 264 274 276 275 279 288 300 304 313
187 202 195 212 223 229 252 277 275 268 271 289 291 276 260 257 278 264 248 273 266 267 265 254 238 220 224 244 227 225 224 154 137 137 161 191 217 243 249 253 259 267 278 297 286 295 313 314 311
198 219 196 206 239 241 263 297 287 265 285 287 289 282 253 257 278 280 289 289 263 261 265 230 258 225 223 232 170 136 111 117 145 173 192 202 222 239 248 253 281 301 294 299 313 311 307 308 312
214 225 218 227 260 250 295 261 288 317 307 296 307 298 268 256 274 279 272 271 172 85 90 177 200 191 147 103 88 100 131 166 175 194 207 224 231 254 266 274 282 271 290 305 306 308 308 308 306
240 234 243 202 216 226 260 256 274 356 347 342 338 14 66 73 156 102 105 86 81 86 86 86 91 101 102 120 141 162 180 177 192 208 229 234 230 275 288 259 270 287 302 301 303 304 304 303 305
228 217 249 274 323 291 246 252 318 290 85 51 55 49 83 88 81 90 98 94 101 110 109 118 127 144 150 169 178 193 199 209 217 232 248 243 249 274 257 285 292 301 298 299 298 299 303 305 302
253 230 226 249 254 277 316 253 269 179 89 81 93 88 99 112 110 124 130 132 134 138 134 149 165 171 170 185 195 205 223 226 229 240 248 253 257 249 277 290 293 293 294 296 300 303 303 301 301
245 239 208 218 225 244 254 280 166 120 109 111 115 119 117 128 141 140 136 141 145 147 150 156 161 174 192 203 217 222 226 218 229 234 234 227 257 273 280 284 291 293 297 301 303 304 303 304 305
230 243 218 228 224 244 276 220 136 117 134 127 133 136 138 139 138 142 142 142 147 150 137 143 178 205 214 224 236 240 230 222 219 219 225 248 262 271 281 289 293 299 303 305 305 305 303 304 304
227 231 234 236 236 246 275 218 184 144 152 159 176 169 157 156 157 149 155 152 149 143 159 173 216 239 245 260 241 218 207 198 217 241 253 263 276 285 292 297 303 306 305 304 304 304 304 305 305
215 220 231 238 247 251 233 210 184 170 172 188 204 207 203 190 189 169 163 163 165 173 173 194 224 231 243 239 205 203 215 230 244 259 275 285 288 295 303 306 306 304 303 303 302 300 303 300 299
221 218 225 226 236 209 202 218 213 202 190 194 225 186 201 228 218 194 183 192 196 199 202 216 224 232 236 219 212 222 232 250 267 281 290 293 299 303 303 304 305 305 306 304 303 304 303 303 304
191 223 217 206 208 203 221 214 205 213 194 186 197 182 210 219 223 224 215 219 224 225 238 243 234 231 230 226 227 236 257 273 282 290 294 299 296 300 305 305 308 308 304 302 302 305 308 309 309
209 216 208 216 220 231 243 236 211 224 202 205 194 199 234 220 225 233 229 234 239 247 257 260 253 240 228 229 240 259 273 282 290 292 303 305 295 294 304 305 310 304 304 306 309 307 309 313 306
214 214 216 230 234 255 258 257 210 224 232 222 234 239 218 217 208 217 214 234 240 251 259 266 243 246 263 253 275 282 292 301 307 298 297 297 291 296 301 305 309 310 308 309 303 311 306 304 306
212 220 236 230 235 258 261 269 287 277 252 223 241 216 211 221 217 219 230 235 242 248 249 241 240 240 264 276 287 297 302 306 307 301 297 295 288 294 301 304 309 307 307 311 298 303 306 308 309
222 230 231 233 251 260 262 271 276 279 266 263 260 263 273 235 227 225 226 232 238 244 243 245 253 258 284 296 301 302 301 303 303 293 290 287 290 290 303 303 306 303 299 299 302 306 306 309 310
222 235 252 262 263 268 268 268 255 281 239 238 254 271 272 236 211 210 218 231 242 256 265 274 291 290 296 302 301 299 300 304 302 290 287 289 292 290 295 298 301 302 299 304 307 309 308 306 306
225 229 237 248 257 262 267 271 262 266 262 252 257 264 265 247 236 242 246 245 252 267 276 286 290 293 298 300 301 306 305 306 303 296 292 289 294 291 291 297 301 301 302 304 307 309 307 306 308
228 229 237 239 253 262 270 267 259 265 261 260 258 258 249 252 250 250 259 269 273 274 280 284 292 297 299 303 304 305 300 301 293 282 285 283 288 292 295 299 300 300 303 305 307 307 306 304 307
226 233 247 257 266 272 270 267 263 267 263 259 258 251 251 252 258 263 271 279 282 282 285 289 295 294 295 298 298 301 298 294 280 277 290 290 287 293 297 299 297 302 303 305 306 305 305 304 305